| time (UTC) | temp C | wind direction | speed KPH | gust KPH | rain 1hr cm | rain 24hr cm | rain mn cm | humidity % | barometer mb |
| 20260508014750 | 6 | 279 | 0.0 | 0.0 | 0.00 | 0.00 | 0.00 | 99 | 1028.0 |
| 20260508013750 | 6 | 237 | 0.0 | 0.0 | 0.00 | 0.00 | 0.00 | 99 | 1027.8 |
| 20260508012751 | 6 | 158 | 0.0 | 0.0 | 0.00 | 0.00 | 0.00 | 99 | 1027.7 |
| 20260508011751 | 6 | 136 | 3.2 | 0.0 | 0.00 | 0.00 | 0.00 | 99 | 1027.5 |
| 20260508010751 | 6 | 304 | 0.0 | 0.0 | 0.00 | 0.00 | 0.00 | 98 | 1027.8 |
| 20260508005750 | 6 | 48 | 0.0 | 0.0 | 0.00 | 0.00 | 0.00 | 98 | 1027.9 |
| 20260508004751 | 7 | 115 | 4.8 | 0.0 | 0.00 | 0.00 | 0.00 | 99 | 1027.8 |
| 20260508003754 | 7 | 150 | 4.8 | 0.0 | 0.00 | 0.00 | 0.00 | 99 | 1027.5 |
| 20260508002751 | 7 | 269 | 3.2 | 0.0 | 0.00 | 0.00 | 0.00 | 98 | 1028.0 |
| 20260508001750 | 7 | 186 | 3.2 | 0.0 | 0.00 | 0.00 | 0.00 | 98 | 1027.8 |
| 20260508000750 | 7 | 138 | 3.2 | 0.0 | 0.00 | 0.00 | 0.00 | 98 | 1027.7 |
| 20260507235750 | 7 | 212 | 0.0 | 0.0 | 0.00 | 0.00 | 0.00 | 98 | 1028.0 |
| 20260507234750 | 7 | 76 | 0.0 | 0.0 | 0.00 | 0.00 | 0.00 | 98 | 1027.9 |
| 20260507233751 | 7 | 124 | 3.2 | 0.0 | 0.00 | 0.00 | 0.00 | 98 | 1027.7 |
| 20260507232750 | 7 | 155 | 0.0 | 0.0 | 0.00 | 0.00 | 0.00 | 98 | 1027.8 |
| 20260507231750 | 7 | 80 | 0.0 | 0.0 | 0.00 | 0.00 | 0.00 | 98 | 1028.1 |
| 20260507230750 | 7 | 279 | 0.0 | 0.0 | 0.00 | 0.00 | 0.00 | 98 | 1028.2 |
| 20260507225751 | 7 | 102 | 11.3 | 0.0 | 0.00 | 0.00 | 0.00 | 98 | 1027.9 |
| 20260507224751 | 7 | 229 | 0.0 | 0.0 | 0.00 | 0.00 | 0.00 | 98 | 1027.9 |
| 20260507223750 | 7 | 168 | 0.0 | 0.0 | 0.00 | 0.00 | 0.00 | 98 | 1028.0 |
| 20260507222750 | 7 | 130 | 0.0 | 0.0 | 0.00 | 0.00 | 0.00 | 97 | 1027.5 |
| 20260507221750 | 8 | 72 | 0.0 | 0.0 | 0.00 | 0.00 | 0.00 | 97 | 1027.5 |
| 20260507220751 | 8 | 143 | 3.2 | 0.0 | 0.00 | 0.00 | 0.00 | 98 | 1027.3 |
| 20260507215750 | 8 | 209 | 3.2 | 0.0 | 0.00 | 0.00 | 0.00 | 98 | 1027.4 |
| 20260507214750 | 8 | 182 | 0.0 | 0.0 | 0.00 | 0.00 | 0.00 | 98 | 1027.3 |
| 20260507213751 | 8 | 134 | 0.0 | 0.0 | 0.00 | 0.00 | 0.00 | 98 | 1027.3 |
| 20260507212750 | 8 | 246 | 0.0 | 0.0 | 0.00 | 0.00 | 0.00 | 97 | 1027.5 |
| 20260507211750 | 8 | 135 | 4.8 | 0.0 | 0.00 | 0.00 | 0.00 | 98 | 1027.1 |
| 20260507210751 | 8 | 52 | 0.0 | 0.0 | 0.00 | 0.00 | 0.00 | 98 | 1026.7 |
| 20260507205751 | 8 | 325 | 0.0 | 0.0 | 0.00 | 0.00 | 0.00 | 97 | 1027.1 |
| 20260507204751 | 8 | 36 | 0.0 | 0.0 | 0.00 | 0.00 | 0.00 | 97 | 1026.8 |
| 20260507203750 | 9 | 262 | 3.2 | 0.0 | 0.00 | 0.00 | 0.00 | 97 | 1026.7 |
| 20260507202750 | 9 | 150 | 0.0 | 0.0 | 0.00 | 0.00 | 0.00 | 97 | 1026.5 |
| 20260507201750 | 9 | 345 | 3.2 | 0.0 | 0.00 | 0.00 | 0.00 | 97 | 1026.5 |
| 20260507200751 | 9 | 173 | 0.0 | 0.0 | 0.00 | 0.00 | 0.00 | 97 | 1026.4 |
| 20260507195751 | 10 | 249 | 0.0 | 0.0 | 0.00 | 0.00 | 0.00 | 97 | 1026.5 |
| 20260507194752 | 10 | 98 | 6.4 | 0.0 | 0.00 | 0.00 | 0.00 | 97 | 1026.1 |
| 20260507193752 | 10 | 141 | 0.0 | 0.0 | 0.00 | 0.00 | 0.00 | 96 | 1026.0 |
| 20260507192751 | 10 | 119 | 0.0 | 0.0 | 0.00 | 0.00 | 0.00 | 96 | 1025.7 |
| 20260507191751 | 10 | 321 | 3.2 | 0.0 | 0.00 | 0.00 | 0.00 | 96 | 1025.6 |
| 20260507190751 | 10 | 150 | 0.0 | 0.0 | 0.00 | 0.00 | 0.00 | 95 | 1025.4 |
| 20260507185751 | 11 | 148 | 3.2 | 0.0 | 0.00 | 0.00 | 0.00 | 94 | 1024.9 |
| 20260507184750 | 11 | 160 | 3.2 | 0.0 | 0.00 | 0.00 | 0.00 | 94 | 1025.1 |
| 20260507183751 | 11 | 111 | 3.2 | 0.0 | 0.00 | 0.00 | 0.00 | 93 | 1025.0 |
| 20260507182750 | 12 | 118 | 1.6 | 0.0 | 0.00 | 0.00 | 0.00 | 92 | 1024.9 |
| 20260507181751 | 12 | 110 | 0.0 | 0.0 | 0.00 | 0.00 | 0.00 | 91 | 1024.8 |
| 20260507180749 | 12 | 29 | 0.0 | 0.0 | 0.00 | 0.00 | 0.00 | 89 | 1024.7 |
| 20260507175749 | 13 | 121 | 0.0 | 0.0 | 0.00 | 0.00 | 0.00 | 89 | 1024.4 |
| 20260507174750 | 13 | 162 | 3.2 | 0.0 | 0.00 | 0.00 | 0.00 | 87 | 1024.2 |
| 20260507173753 | 13 | 162 | 1.6 | 0.0 | 0.00 | 0.00 | 0.00 | 86 | 1024.3 |
| 20260507172750 | 13 | 100 | 8.0 | 0.0 | 0.00 | 0.00 | 0.00 | 87 | 1024.1 |
| 20260507171750 | 13 | 126 | 8.0 | 0.0 | 0.00 | 0.00 | 0.00 | 87 | 1024.3 |
| 20260507170750 | 13 | 117 | 9.7 | 0.0 | 0.00 | 0.00 | 0.00 | 86 | 1024.3 |
| 20260507165750 | 13 | 103 | 11.3 | 0.0 | 0.00 | 0.00 | 0.00 | 85 | 1024.1 |
| 20260507164751 | 13 | 111 | 8.0 | 0.0 | 0.00 | 0.00 | 0.00 | 85 | 1024.3 |
| 20260507163749 | 13 | 110 | 11.3 | 0.0 | 0.00 | 0.00 | 0.00 | 84 | 1024.4 |
| 20260507162750 | 13 | 113 | 14.5 | 0.0 | 0.00 | 0.00 | 0.00 | 83 | 1024.4 |
| 20260507161750 | 13 | 125 | 11.3 | 0.0 | 0.00 | 0.00 | 0.00 | 84 | 1024.2 |
| 20260507160750 | 13 | 123 | 11.3 | 0.0 | 0.00 | 0.00 | 0.00 | 86 | 1024.3 |
| 20260507155749 | 13 | 114 | 16.1 | 0.0 | 0.00 | 0.00 | 0.00 | 87 | 1024.3 |
| 20260507154750 | 13 | 125 | 11.3 | 0.0 | 0.00 | 0.00 | 0.00 | 88 | 1024.1 |
| 20260507153749 | 13 | 113 | 8.0 | 0.0 | 0.00 | 0.00 | 0.00 | 86 | 1024.3 |
| 20260507152750 | 13 | 119 | 4.8 | 0.0 | 0.00 | 0.00 | 0.00 | 87 | 1024.3 |
| 20260507151750 | 13 | 114 | 14.5 | 0.0 | 0.00 | 0.00 | 0.00 | 86 | 1024.4 |
| 20260507150749 | 13 | 118 | 14.5 | 0.0 | 0.00 | 0.00 | 0.00 | 88 | 1024.1 |
| 20260507145750 | 12 | 95 | 4.8 | 0.0 | 0.00 | 0.00 | 0.00 | 90 | 1024.6 |
| 20260507144750 | 12 | 106 | 6.4 | 0.0 | 0.00 | 0.00 | 0.00 | 90 | 1024.5 |
| 20260507143750 | 12 | 98 | 8.0 | 0.0 | 0.00 | 0.00 | 0.00 | 91 | 1024.5 |
| 20260507142750 | 12 | 155 | 4.8 | 0.0 | 0.00 | 0.00 | 0.00 | 91 | 1024.5 |
| 20260507141751 | 12 | 96 | 22.5 | 0.0 | 0.00 | 0.00 | 0.00 | 89 | 1024.3 |
| 20260507140750 | 13 | 122 | 12.9 | 0.0 | 0.00 | 0.00 | 0.00 | 87 | 1024.3 |
| 20260507135750 | 13 | 114 | 14.5 | 0.0 | 0.00 | 0.00 | 0.00 | 88 | 1024.3 |
| 20260507134750 | 13 | 137 | 17.7 | 0.0 | 0.00 | 0.00 | 0.00 | 85 | 1024.2 |
| 20260507133750 | 13 | 115 | 9.7 | 0.0 | 0.00 | 0.00 | 0.00 | 83 | 1024.3 |
| 20260507132750 | 13 | 115 | 33.8 | 0.0 | 0.00 | 0.00 | 0.00 | 82 | 1024.0 |
| 20260507131750 | 14 | 118 | 41.8 | 0.0 | 0.00 | 0.00 | 0.00 | 81 | 1024.0 |
| 20260507130749 | 14 | 124 | 27.4 | 0.0 | 0.00 | 0.00 | 0.00 | 80 | 1023.9 |
| 20260507125749 | 15 | 117 | 6.4 | 0.0 | 0.00 | 0.00 | 0.00 | 76 | 1023.9 |
| 20260507124749 | 15 | 96 | 27.4 | 0.0 | 0.00 | 0.00 | 0.00 | 77 | 1023.7 |
| 20260507123749 | 15 | 120 | 20.9 | 0.0 | 0.00 | 0.00 | 0.00 | 76 | 1023.2 |
| 20260507122749 | 15 | 123 | 8.0 | 0.0 | 0.00 | 0.00 | 0.00 | 77 | 1023.4 |
| 20260507121749 | 15 | 113 | 19.3 | 0.0 | 0.00 | 0.00 | 0.00 | 77 | 1023.4 |
| 20260507120749 | 15 | 160 | 14.5 | 0.0 | 0.00 | 0.00 | 0.00 | 75 | 1023.1 |
| 20260507115749 | 15 | 150 | 11.3 | 0.0 | 0.00 | 0.00 | 0.00 | 78 | 1023.2 |
| 20260507114749 | 15 | 117 | 17.7 | 0.0 | 0.00 | 0.00 | 0.00 | 76 | 1023.1 |
| 20260507113749 | 16 | 105 | 9.7 | 0.0 | 0.00 | 0.00 | 0.00 | 73 | 1022.8 |
| 20260507112749 | 16 | 338 | 6.4 | 0.0 | 0.00 | 0.00 | 0.00 | 64 | 1022.8 |
| 20260507111749 | 17 | 119 | 8.0 | 0.0 | 0.00 | 0.00 | 0.00 | 63 | 1022.6 |
| 20260507110749 | 16 | 340 | 1.6 | 0.0 | 0.00 | 0.00 | 0.00 | 65 | 1023.0 |
| 20260507105749 | 16 | 237 | 1.6 | 0.0 | 0.00 | 0.00 | 0.00 | 65 | 1023.2 |
| 20260507104749 | 15 | 155 | 4.8 | 0.0 | 0.00 | 0.00 | 0.00 | 65 | 1023.6 |
| 20260507103749 | 16 | 354 | 11.3 | 0.0 | 0.00 | 0.00 | 0.00 | 67 | 1023.1 |
| 20260507102749 | 16 | 29 | 8.0 | 0.0 | 0.00 | 0.00 | 0.00 | 69 | 1023.7 |
| 20260507101749 | 15 | 312 | 4.8 | 0.0 | 0.00 | 0.00 | 0.00 | 69 | 1023.9 |
| 20260507100749 | 15 | 299 | 11.3 | 0.0 | 0.00 | 0.00 | 0.00 | 69 | 1023.8 |
| 20260507095749 | 16 | 307 | 9.7 | 0.0 | 0.00 | 0.00 | 0.00 | 68 | 1023.6 |
| 20260507094749 | 15 | 20 | 9.7 | 0.0 | 0.00 | 0.00 | 0.00 | 69 | 1023.8 |
| 20260507093748 | 15 | 28 | 12.9 | 0.0 | 0.00 | 0.00 | 0.00 | 70 | 1024.0 |
| 20260507092749 | 15 | 313 | 6.4 | 0.0 | 0.00 | 0.00 | 0.00 | 72 | 1023.8 |
| 20260507091749 | 14 | 0 | 9.7 | 0.0 | 0.00 | 0.00 | 0.00 | 73 | 1024.2 |
| 20260507090748 | 13 | 3 | 8.0 | 0.0 | 0.00 | 0.00 | 0.00 | 74 | 1024.2 |
| 20260507085749 | 13 | 310 | 8.0 | 0.0 | 0.00 | 0.00 | 0.00 | 76 | 1024.4 |
| 20260507084749 | 13 | 24 | 8.0 | 0.0 | 0.00 | 0.00 | 0.00 | 76 | 1024.3 |
| 20260507083748 | 13 | 13 | 14.5 | 0.0 | 0.00 | 0.00 | 0.00 | 77 | 1024.4 |
| 20260507082748 | 13 | 282 | 3.2 | 0.0 | 0.00 | 0.00 | 0.00 | 78 | 1024.3 |
| 20260507081749 | 13 | 310 | 6.4 | 0.0 | 0.00 | 0.00 | 0.00 | 78 | 1024.1 |
| 20260507080748 | 13 | 341 | 9.7 | 0.0 | 0.00 | 0.00 | 0.00 | 78 | 1024.1 |
| 20260507075748 | 13 | 333 | 11.3 | 0.0 | 0.00 | 0.00 | 0.00 | 80 | 1024.2 |
| 20260507074749 | 12 | 317 | 6.4 | 0.0 | 0.00 | 0.00 | 0.00 | 79 | 1024.5 |
| 20260507073748 | 12 | 32 | 9.7 | 0.0 | 0.00 | 0.00 | 0.00 | 78 | 1024.7 |
| 20260507072748 | 11 | 175 | 0.0 | 0.0 | 0.00 | 0.00 | 0.00 | 78 | 1024.6 |
| 20260507071748 | 10 | 7 | 1.6 | 0.0 | 0.00 | 0.00 | 0.00 | 78 | 1025.0 |
| 20260507070748 | 10 | 304 | 0.0 | 0.0 | 0.00 | 0.00 | 0.00 | 79 | 1025.0 |
| 20260507065748 | 10 | 150 | 8.0 | 0.0 | 0.00 | 0.00 | 0.00 | 81 | 1024.9 |
| 20260507064750 | 8 | 158 | 11.3 | 0.0 | 0.00 | 0.00 | 0.00 | 84 | 1025.3 |
| 20260507063750 | 8 | 152 | 9.7 | 0.0 | 0.00 | 0.00 | 0.00 | 86 | 1025.4 |
| 20260507062749 | 7 | 126 | 4.8 | 0.0 | 0.00 | 0.00 | 0.00 | 87 | 1025.9 |
| 20260507061749 | 7 | 147 | 4.8 | 0.0 | 0.00 | 0.00 | 0.00 | 88 | 1025.6 |
| 20260507060750 | 7 | 177 | 8.0 | 0.0 | 0.00 | 0.00 | 0.00 | 89 | 1026.2 |
| 20260507055748 | 7 | 92 | 3.2 | 0.0 | 0.00 | 0.00 | 0.00 | 93 | 1026.1 |
| 20260507054749 | 6 | 259 | 0.0 | 0.0 | 0.00 | 0.00 | 0.00 | 93 | 1026.2 |
| 20260507053749 | 6 | 168 | 9.7 | 0.0 | 0.00 | 0.00 | 0.00 | 94 | 1026.2 |
| 20260507052748 | 6 | 157 | 1.6 | 0.0 | 0.00 | 0.00 | 0.00 | 95 | 1026.1 |
| 20260507051748 | 6 | 154 | 12.9 | 0.0 | 0.00 | 0.00 | 0.00 | 97 | 1025.9 |
| 20260507050749 | 5 | 140 | 3.2 | 0.0 | 0.00 | 0.00 | 0.00 | 97 | 1026.3 |
| 20260507045749 | 5 | 140 | 4.8 | 0.0 | 0.00 | 0.00 | 0.00 | 98 | 1026.1 |
| 20260507043749 | 5 | 127 | 6.4 | 0.0 | 0.00 | 0.00 | 0.00 | 98 | 1025.8 |
| 20260507042748 | 5 | 224 | 0.0 | 0.0 | 0.00 | 0.00 | 0.00 | 97 | 1026.0 |
| 20260507041748 | 5 | 102 | 3.2 | 0.0 | 0.00 | 0.00 | 0.00 | 98 | 1026.1 |
| 20260507040748 | 5 | 101 | 3.2 | 0.0 | 0.00 | 0.00 | 0.00 | 97 | 1026.0 |
| 20260507035748 | 5 | 209 | 0.0 | 0.0 | 0.00 | 0.00 | 0.00 | 97 | 1025.9 |
| 20260507034749 | 5 | 158 | 0.0 | 0.0 | 0.00 | 0.00 | 0.00 | 97 | 1025.7 |
| 20260507033749 | 5 | 269 | 0.0 | 0.0 | 0.00 | 0.00 | 0.00 | 97 | 1025.4 |
| 20260507032749 | 5 | 153 | 3.2 | 0.0 | 0.00 | 0.00 | 0.00 | 97 | 1025.4 |
| 20260507031748 | 5 | 168 | 0.0 | 0.0 | 0.00 | 0.00 | 0.00 | 97 | 1025.3 |
| 20260507030748 | 5 | 117 | 3.2 | 0.0 | 0.00 | 0.00 | 0.00 | 97 | 1025.1 |
| 20260507025749 | 5 | 245 | 1.6 | 0.0 | 0.00 | 0.00 | 0.00 | 97 | 1025.1 |
| 20260507024749 | 5 | 298 | 1.6 | 0.0 | 0.00 | 0.00 | 0.00 | 97 | 1025.4 |
| 20260507023750 | 5 | 315 | 0.0 | 0.0 | 0.00 | 0.00 | 0.00 | 97 | 1025.2 |
| 20260507022749 | 5 | 104 | 6.4 | 0.0 | 0.00 | 0.00 | 0.00 | 97 | 1025.3 |
| 20260507021749 | 5 | 265 | 3.2 | 0.0 | 0.00 | 0.00 | 0.00 | 97 | 1025.1 |
| 20260507020749 | 5 | 160 | 0.0 | 0.0 | 0.00 | 0.00 | 0.00 | 97 | 1025.0 |
| 20260507015748 | 6 | 122 | 1.6 | 0.0 | 0.00 | 0.00 | 0.00 | 97 | 1025.0 |